NOTE: This page is experimental. Bug reports to carter.barry@gmail.com. Query language is SQLite3.

Prepend rss. to the URL for an RSS feed, csv. to the URL for CSV output.

QUERY: SELECT station_id AS "Code", observation_time AS "Time (GMT)", ROUND(altim_in_hg,2) AS "Pressure (inches)", ROUND(temp_c*1.8+32, 1) AS "Temp. (F)", ROUND(wind_speed_kt*1.15077945) AS "Wind (mph)", (CASE WHEN wind_gust_kt THEN ROUND(wind_gust_kt*1.15077945) ELSE "NA" END) AS "Gust (mph)", DATETIME(observation_time,'-7 hours') AS "Time (MST)" FROM metar WHERE station_id='KABQ' ORDER BY observation_time DESC

To edit query (or if query above is munged), see textbox at bottom of page

Empty result may indicate error: I'm not sure why my error checking code isn't working.

Source code

Code Time (GMT) Pressure (inches) Temp. (F) Wind (mph) Gust (mph) Time (MST)
KABQ 2017-11-21T05:52:00Z 30.12 46.9 5.0 NA 2017-11-20 22:52:00
KABQ 2017-11-21T04:52:00Z 30.12 48.9 7.0 NA 2017-11-20 21:52:00
KABQ 2017-11-21T03:52:00Z 30.12 50.0 7.0 NA 2017-11-20 20:52:00
KABQ 2017-11-21T02:52:00Z 30.11 48.0 0.0 NA 2017-11-20 19:52:00
KABQ 2017-11-21T01:52:00Z 30.09 50.0 0.0 NA 2017-11-20 18:52:00
KABQ 2017-11-21T00:52:00Z 30.08 53.1 3.0 NA 2017-11-20 17:52:00
KABQ 2017-11-20T23:52:00Z 30.07 53.1 3.0 NA 2017-11-20 16:52:00
KABQ 2017-11-20T22:52:00Z 30.08 57.0 0.0 NA 2017-11-20 15:52:00
KABQ 2017-11-20T21:52:00Z 30.08 55.9 0.0 NA 2017-11-20 14:52:00
KABQ 2017-11-20T20:52:00Z 30.1 57.0 0.0 NA 2017-11-20 13:52:00
KABQ 2017-11-20T19:52:00Z 30.11 54.0 0.0 NA 2017-11-20 12:52:00
KABQ 2017-11-20T18:52:00Z 30.14 50.0 6.0 NA 2017-11-20 11:52:00
KABQ 2017-11-20T17:52:00Z 30.18 48.0 3.0 NA 2017-11-20 10:52:00
KABQ 2017-11-20T16:52:00Z 30.19 39.9 0.0 NA 2017-11-20 09:52:00
KABQ 2017-11-20T15:52:00Z 30.18 37.9 0.0 NA 2017-11-20 08:52:00
KABQ 2017-11-20T14:52:00Z 30.2 33.1 6.0 NA 2017-11-20 07:52:00
KABQ 2017-11-20T13:52:00Z 30.19 28.9 7.0 NA 2017-11-20 06:52:00
KABQ 2017-11-20T12:52:00Z 30.17 30.0 5.0 NA 2017-11-20 05:52:00
KABQ 2017-11-20T11:52:00Z 30.17 30.0 0.0 NA 2017-11-20 04:52:00
KABQ 2017-11-20T10:52:00Z 30.17 30.9 7.0 NA 2017-11-20 03:52:00
KABQ 2017-11-20T09:52:00Z 30.17 28.0 3.0 NA 2017-11-20 02:52:00
KABQ 2017-11-20T08:52:00Z 30.16 32.0 0.0 NA 2017-11-20 01:52:00
KABQ 2017-11-20T07:52:00Z 30.18 34.0 6.0 NA 2017-11-20 00:52:00
KABQ 2017-11-20T06:52:00Z 30.18 36.0 6.0 NA 2017-11-19 23:52:00

Enter query below (must start w/ SELECT):

Schema Raw SQLite3 db RSS feed for this query